Theta_e
286 286 286 286 286 286 286 286 286 286 286 286 286 286 286 286 286 287 287 288 289 289 290 292 293 293 294 294 295 295 295 295 295 295 295 296 296 296 296 296 296 296
287 287 287 287 287 287 287 287 287 287 287 287 287 287 287 287 287 287 287 287 287 287 287 287 288 289 290 291 292 293 294 294 294 295 295 295 295 295 295 295 296 296
287 287 287 287 287 287 287 288 288 287 287 287 288 288 288 288 288 288 288 287 287 287 287 287 287 287 287 287 288 289 290 291 292 293 293 294 294 294 294 294 295 295
287 287 287 287 287 287 287 287 287 287 287 287 287 287 287 287 287 287 287 287 287 287 287 287 287 287 287 287 286 286 287 287 289 290 291 292 293 293 293 294 294 294
288 287 288 287 287 287 287 287 287 287 287 287 287 287 287 287 287 287 287 287 287 287 287 287 287 287 287 287 287 287 287 286 286 286 287 288 290 291 292 293 293 293
288 288 288 288 288 287 287 287 287 287 287 287 287 287 286 287 286 287 287 286 286 286 286 286 286 286 286 286 287 287 287 287 287 286 286 286 286 287 289 290 291 292
288 288 287 287 287 287 287 287 287 287 286 286 286 286 286 286 286 286 286 286 286 285 285 285 285 285 285 285 285 286 286 286 287 287 287 286 286 286 286 286 288 289
287 287 287 287 287 287 287 287 286 286 286 286 286 285 285 285 285 285 285 285 285 284 284 284 284 284 284 284 284 284 285 285 285 286 286 286 286 286 286 285 285 286
287 287 287 287 287 286 286 286 286 285 285 285 285 285 285 284 284 284 284 284 284 283 283 283 283 284 283 284 284 284 284 284 284 284 285 285 285 286 286 286 285 285
287 287 287 286 286 286 286 285 285 284 284 284 283 284 284 284 284 283 283 283 283 283 283 283 283 283 283 283 283 283 283 283 283 284 284 284 284 285 285 286 286 286
286 286 286 285 285 285 284 284 284 283 283 283 282 283 283 283 283 283 282 282 282 282 282 282 283 283 283 283 283 283 283 283 283 283 283 283 284 284 284 285 285 285
285 285 285 284 284 283 283 282 282 282 282 281 281 282 282 281 281 281 281 281 281 282 282 282 282 282 282 282 282 283 283 283 283 283 283 283 283 283 283 284 284 285
284 284 283 283 282 282 282 281 281 281 280 280 280 280 280 280 279 279 280 280 280 280 280 281 281 281 282 282 282 282 282 282 282 282 282 282 282 282 283 283 284 284
284 283 282 281 281 281 280 280 280 279 279 279 278 278 278 278 278 278 278 278 278 279 279 279 280 280 280 281 281 281 281 282 282 282 282 282 282 282 283 283 283 283
281 281 280 279 279 279 278 278 278 277 277 276 276 276 276 276 276 276 276 276 277 277 277 278 278 279 279 280 280 280 281 281 281 282 282 282 282 282 283 283 283 283
280 279 279 278 278 278 277 277 276 276 275 275 275 275 274 274 274 274 275 275 275 275 276 276 277 277 278 279 279 280 280 281 281 281 282 282 282 282 282 282 283 283
280 280 279 279 278 278 277 277 276 276 275 275 275 274 274 273 273 273 273 273 273 273 273 274 274 275 276 277 277 278 279 279 280 280 280 281 281 281 281 281 282 282
278 278 278 277 277 276 276 276 275 275 275 275 274 274 273 273 272 271 271 270 270 270 270 270 271 272 273 274 274 275 276 277 277 278 278 279 279 280 280 281 281 281
276 275 275 275 274 274 274 274 274 274 273 273 273 272 272 272 271 270 269 268 268 268 268 268 268 269 270 271 272 273 274 275 276 276 277 277 278 278 278 279 279 280
273 273 273 273 272 272 272 272 272 271 271 271 270 270 269 269 268 268 267 266 266 265 266 266 265 266 268 270 271 272 272 273 274 274 275 275 276 276 277 278 278 279
272 271 271 271 271 271 270 270 269 268 268 268 267 267 266 265 265 265 264 264 264 264 264 264 264 265 267 268 269 270 270 271 272 272 272 273 273 274 275 275 276 277
270 269 269 269 269 268 268 268 267 266 266 266 265 265 264 264 263 263 263 263 263 263 263 263 263 264 265 266 267 268 269 270 270 270 270 271 271 271 272 272 273 274
268 268 267 267 267 266 266 266 265 265 265 264 264 263 263 263 263 262 262 262 262 262 262 262 263 263 264 266 266 268 269 269 269 269 270 270 270 271 271 271 272 273
267 266 266 265 265 265 265 264 264 264 264 263 263 262 262 262 262 262 262 262 262 262 262 262 262 263 264 265 266 267 268 268 269 269 269 269 270 270 270 271 272 272
266 266 265 265 264 264 264 263 263 263 263 262 262 262 262 261 261 261 261 261 261 261 262 262 262 262 263 264 265 267 268 268 268 269 269 269 269 270 270 270 271 271
266 265 265 264 264 264 263 263 262 262 262 261 261 261 261 261 261 261 261 261 261 261 261 262 262 262 262 264 265 266 267 268 268 269 269 269 269 269 269 270 270 270
Wind_Speed
26 26 27 27 27 27 27 27 27 26 26 26 27 27 26 27 26 26 25 24 23 21 20 18 17 17 17 17 17 17 18 18 19 20 21 21 22 22 23 23 23 24
25 25 26 26 26 26 26 26 25 25 25 25 26 26 26 26 26 26 26 25 25 24 23 22 21 20 20 19 19 18 18 18 19 19 20 22 22 23 24 23 23 24
24 25 25 25 25 25 25 25 25 25 25 25 26 26 27 27 27 27 27 26 26 25 24 24 23 22 22 22 21 21 20 20 20 19 20 21 21 23 24 24 25 24
22 23 23 23 23 23 24 24 25 26 26 26 27 27 28 29 29 29 29 28 28 28 26 25 24 23 23 23 23 23 22 22 21 21 21 21 22 22 23 24 25 26
20 20 21 21 22 22 23 24 25 26 27 27 28 28 29 30 30 31 31 31 30 30 29 28 27 25 25 24 24 24 24 24 24 23 23 23 23 23 23 24 25 26
16 17 18 20 21 21 23 24 24 26 27 28 28 28 29 30 31 31 31 32 32 32 32 31 30 29 28 26 25 25 25 25 26 26 26 26 25 25 24 25 26 27
13 13 15 17 18 19 20 22 23 25 27 28 28 28 28 29 30 30 31 32 32 32 32 32 32 32 31 30 28 27 26 26 26 27 27 28 28 28 27 26 26 27
12 12 12 14 16 17 19 21 23 25 26 28 29 29 28 29 30 30 31 31 31 32 32 33 33 33 33 32 31 31 30 29 29 28 28 28 28 29 30 29 29 28
11 11 11 14 15 16 19 21 23 25 25 26 27 27 27 28 28 29 30 31 31 32 33 33 34 34 34 34 33 32 32 32 31 30 29 29 29 29 30 30 31 31
9 9 10 13 14 16 19 22 24 25 25 25 25 25 25 26 27 28 29 30 31 32 33 33 34 35 35 35 34 33 33 33 33 32 31 31 30 30 30 30 31 33
7 7 9 12 13 16 19 21 24 25 25 26 26 26 26 26 27 28 28 29 29 30 31 33 34 34 35 36 35 34 34 34 34 33 33 33 33 32 32 31 31 33
9 11 14 16 18 20 22 24 25 26 26 27 26 27 28 29 30 31 31 31 31 31 30 31 32 33 34 35 35 35 35 35 34 34 33 34 34 34 34 33 33 33
15 18 20 21 22 24 25 26 27 28 28 29 28 29 30 31 31 32 33 33 34 34 33 33 33 33 33 33 33 33 33 34 35 35 36 36 36 35 35 35 35 35
21 22 22 23 24 25 26 27 27 28 29 30 31 32 32 32 32 33 34 34 34 34 34 34 34 35 35 33 32 32 31 32 34 35 36 37 37 37 37 36 36 37
22 23 23 23 24 25 26 27 28 29 30 31 31 32 32 33 33 33 33 34 34 34 34 33 33 34 34 32 32 33 33 33 33 34 34 35 36 37 38 38 38 38
23 24 24 25 26 27 28 29 30 31 32 32 32 31 31 31 31 31 31 31 32 32 32 32 32 32 32 30 30 32 33 34 34 34 35 35 35 36 37 38 38 39
24 25 26 27 28 29 30 32 33 33 34 34 34 34 33 32 31 31 31 30 30 31 32 32 32 32 30 31 31 31 32 33 34 35 35 36 37 37 38 39 39 39
23 24 25 26 27 29 30 32 33 34 35 35 36 37 36 36 35 34 34 32 32 33 34 34 33 31 29 30 31 31 31 32 34 36 37 38 38 39 40 40 40 39
21 22 24 25 26 28 29 30 32 33 34 35 36 37 37 38 38 37 37 35 33 33 34 35 35 32 28 29 30 29 29 30 32 34 36 38 40 40 41 42 42 41
20 22 23 25 26 27 28 29 30 32 33 33 35 36 36 37 37 37 37 35 33 32 34 36 35 31 28 28 28 27 28 29 30 32 34 36 38 39 40 40 40 40
20 22 23 25 26 27 28 30 30 31 32 32 33 34 34 34 34 35 35 35 33 33 35 37 34 29 27 28 28 28 29 29 28 30 32 35 37 37 37 38 39 40
20 22 24 25 27 28 29 30 30 30 31 32 33 33 33 32 32 33 33 34 35 34 35 37 35 29 28 29 29 29 29 27 27 29 31 34 36 37 38 40 40 41
20 22 24 25 26 28 29 30 30 31 31 31 32 34 33 32 33 34 33 33 34 34 34 37 37 31 28 29 29 28 28 27 27 28 29 31 33 34 35 36 37 38
20 22 23 25 26 27 29 30 30 31 32 30 31 33 34 33 34 35 34 32 32 33 33 34 36 32 28 29 29 28 27 27 27 27 28 29 30 31 30 30 32 32
21 22 23 24 26 27 28 29 30 31 31 30 30 32 34 34 33 34 35 32 32 34 33 32 34 34 29 28 29 27 27 28 28 28 29 29 28 29 29 29 29 30
21 22 23 24 26 27 28 28 29 30 30 31 31 32 33 33 32 32 34 34 33 33 33 31 33 34 30 28 29 29 28 29 29 29 29 29 29 30 31 31 31 31
Wind_Direction
61 60 59 57 56 53 50 48 44 42 38 34 31 29 28 27 26 25 26 25 25 22 18 12 4 354 345 337 332 327 325 324 322 321 320 315 312 308 303 298 293 288
53 51 50 49 49 46 44 42 39 36 32 28 26 23 21 20 19 19 18 17 17 17 16 15 12 8 0 353 345 336 330 326 321 321 321 317 314 312 307 304 301 296
45 43 42 41 40 38 36 34 31 28 25 21 18 15 14 12 11 12 11 10 9 8 7 6 6 5 2 358 354 347 342 336 330 325 320 315 314 313 311 308 304 301
41 39 38 36 34 32 28 25 22 19 15 12 10 7 5 5 4 4 4 4 2 0 359 358 357 356 355 353 351 348 346 342 340 335 327 319 314 312 311 310 308 304
35 33 31 28 25 22 19 16 13 9 6 3 1 360 358 357 358 358 358 357 356 354 353 352 351 350 348 346 344 342 340 339 339 337 333 328 323 317 312 309 308 305
30 25 22 18 15 12 9 7 3 359 357 354 353 353 351 351 351 352 352 351 350 348 347 346 346 345 344 342 339 336 334 333 332 332 330 327 325 322 318 313 308 305
22 15 14 9 6 4 360 357 354 350 348 346 346 347 346 345 345 346 346 345 343 342 341 340 339 339 339 337 335 332 330 328 326 326 324 323 321 319 318 317 312 308
11 4 2 358 355 353 350 348 345 343 342 340 340 341 341 340 339 339 339 338 337 335 335 334 332 332 332 331 329 327 325 324 322 321 319 317 316 314 313 314 311 307
1 355 351 349 347 345 343 341 339 338 336 335 335 334 334 334 333 332 332 331 330 329 328 327 326 325 325 324 323 321 320 319 317 315 313 311 310 309 308 308 307 304
351 347 343 342 339 336 334 333 333 332 332 332 331 329 328 328 326 326 326 325 324 324 323 321 320 319 319 317 316 315 314 313 312 310 309 307 305 303 302 301 301 299
335 333 334 333 330 328 327 328 329 329 329 329 329 328 326 325 324 323 322 321 319 318 316 315 314 314 313 312 311 311 310 308 308 306 305 305 304 301 299 297 295 293
329 333 334 334 332 330 330 329 329 328 328 328 328 327 325 323 322 321 320 319 316 314 312 310 309 308 307 307 307 307 307 306 305 303 302 302 301 300 298 295 292 290
333 335 335 334 332 330 329 327 325 325 325 325 325 323 322 321 320 318 316 315 313 312 311 309 308 306 304 303 303 304 304 303 302 302 301 300 298 297 295 293 290 288
329 330 330 329 327 326 325 323 322 322 322 321 320 320 319 318 317 315 313 312 311 310 310 309 307 306 304 304 304 304 302 300 299 298 297 297 296 295 293 291 288 287
329 329 328 327 326 326 325 324 324 323 322 321 320 319 318 316 315 314 312 311 311 310 310 309 307 304 304 306 306 305 303 301 298 296 295 293 292 292 290 288 287 285
326 325 325 325 325 326 325 324 323 323 322 322 321 319 318 317 315 314 312 311 311 311 309 308 306 304 304 306 306 304 303 302 300 298 295 292 290 288 286 285 284 283
319 318 318 319 320 320 319 319 319 319 320 319 318 318 317 316 315 314 313 312 311 309 307 305 303 303 305 306 305 303 303 302 301 298 295 292 290 287 286 284 283 282
318 317 317 317 317 316 316 317 317 317 317 316 316 316 315 314 314 313 312 312 312 310 308 306 304 305 307 306 303 303 302 300 297 295 292 289 288 286 285 285 284 283
318 317 316 316 316 316 315 315 315 315 316 316 315 315 314 313 313 313 313 314 315 313 310 308 307 309 310 308 305 304 302 298 295 292 289 286 285 284 284 283 283 283
315 314 315 314 315 316 315 315 316 316 316 316 315 315 314 313 313 314 314 315 316 314 312 310 310 313 313 311 309 308 304 299 295 290 287 285 283 282 282 282 282 282
315 315 316 316 317 317 317 317 318 317 317 317 316 314 313 313 313 313 313 314 314 314 312 309 310 314 314 312 311 309 305 301 294 289 285 283 282 281 280 281 281 281
317 318 318 319 319 319 319 319 318 317 317 317 315 313 312 312 311 311 312 312 312 313 311 308 309 312 312 310 310 308 305 302 296 291 288 284 283 282 281 281 280 279
319 319 319 319 319 318 317 317 317 316 316 316 315 312 311 311 310 310 310 310 310 311 310 308 308 311 311 309 308 306 304 302 297 293 289 287 286 287 286 285 282 280
319 318 318 317 316 316 315 315 315 314 314 314 312 309 309 309 310 309 309 309 309 309 309 307 306 309 310 307 305 304 303 300 297 294 292 291 291 292 291 291 288 285
319 317 317 316 315 314 314 313 312 311 311 311 309 307 307 307 309 308 308 309 309 308 308 306 305 308 309 306 304 303 301 299 296 293 291 292 293 294 294 295 294 293
318 317 317 316 314 314 313 311 310 309 309 309 308 307 306 306 307 307 307 308 309 309 308 307 306 307 308 306 304 302 301 300 297 293 292 293 295 295 294 294 293 293